597  
ASUS42 KMLB 242012  
RWRMLB  
HOURLY WEATHER ROUNDUP AROUND FLORIDA  
NATIONAL WEATHER SERVICE OFFICE MELBOURNE FL  
300 PM EST WED FEB 24 2021  
 
CITY SKY/WX TMP DP RH WIND PRES REMARKS
 
MELBOURNE MOSUNNY 76 64 66 SE12 30.10F  
FORT PIERCE MOSUNNY 77 61 57 SE15G22 30.11F  
ORLANDO INTL MOSUNNY 80 57 45 SW8 30.10F  
DAYTONA BEACH MOSUNNY 73 54 51 E8 30.12F  
VERO BEACH MOSUNNY 77 63 61 SE16 30.12F  

   
..ELSEWHERE ACROSS CENTRAL FLORIDA
 
 
 
CITY SKY/WX TMP DP RH WIND PRES REMARKS
 
PATRICK AFB SUNNY 73 59 61 E8 30.12F  
KSC MOSUNNY 77 60 55 SE13 30.11F  
CAPE CANAVERAL SUNNY 76 60 57 SE8 30.11F  
TITUSVILLE PTSUNNY 81 61 50 SE12 30.13F  
SEBASTIAN MOCLDY 77 64 65 E13 30.12F  
ORLANDO EXEC MOSUNNY 81 58 45 VRB7 30.11F  
LEESBURG MOSUNNY 80 57 45 S6 30.12F  
SANFORD SUNNY 82 56 40 SW10 30.11F  
DELAND MOSUNNY 79 56 45 SW8 30.12F  
NEW SMYRNA BCH N/A 70 57 64 E7 30.12F  
ORMOND BEACH MOSUNNY 72 55 56 E8 30.13F  
WINTER HAVEN MOSUNNY 82 57 42 S7 30.11F  
KISSIMMEE MOSUNNY 81 60 48 W6 30.11F  
OKEECHOBEE MOSUNNY 81 63 54 CALM 30.10S  
TAMPA MOSUNNY 76 45 33 W9 30.13F  

   
..NORTHERN FLORIDA
 
 
 
CITY SKY/WX TMP DP RH WIND PRES REMARKS
 
PALM COAST SUNNY 73 52 46 E12 30.13F  
ST AUGUSTINE SUNNY 70 48 45 SE9 30.14F  
OCALA SUNNY 78 47 33 VRB5 30.13F  
GAINESVILLE SUNNY 77 40 26 SW12 30.14F  
JACKSONVILLE MOSUNNY 77 50 38 W13 30.10F  
TALLAHASSEE SUNNY 74 37 26 VRB5 30.11F  

   
..ALONG THE SOUTHEAST COAST TO THE KEYS
 
 
 
CITY SKY/WX TMP DP RH WIND PRES REMARKS
 
STUART PTSUNNY 77 63 61 E13 30.13F  
WEST PALM BCH PTSUNNY 79 65 62 E7 30.11F  
MIAMI PTSUNNY 76 71 85 SE8 30.10F  
KEY WEST MOSUNNY 80 68 66 CALM 30.10F  

   
..MARINE REPORTS
 
 
 
STATION/POSITION TIME TEMP WIND PRES WAVE SWELL
 
AIR SEA DIR/SP/G HT/PER HT/PER  
(UTC) (F) (DEG/KT/KT) (MB) (FT/S) (FT/S)  
ST AUGUSTINE FP 2000 63 62 110/ 8/ 8 1020.3F  
20NM E CAPE CANA 1950 71 69 130/ 4/ 4 1019.9F 2/ 8 2/ 8  
120 E NEW SMYRNA 1950 71 170/ 2/ 6 1021.7S 3/ 8 3/ 8  
TRIDENT PIER 1930 72 67 70/ 7/ 9 1021.3F  
4NM E PORT CANAV 1926 68 N/A 1/ 8  
6NM NE FPR INLET 1956 71 N/A 3/ 7 2/11  
SETTLEMENT PT GB 2000 73 80/ 11/ 12 1020.3F  

 
 
 
CLICK HERE TO GO TO PREVIOUS BULLETINS.

The Nexlab FL Page Main Text Page